Regional Weather Roundup
Issued by NWS

Home | Current Version | Previous Version | Graphics & Text | Print | Product List | Glossary Off
Versions: 1 2 3 4 5 6 7 8 9 10 11 12 13 14 15 16 17 18 19 20 21 22 23 24 25 26 27 28 29 30 31 32 33 34 35 36 37 38 39 40 41 42 43 44 45 46 47 48 49 50

000
ASUS43 KDMX 301007
RWRIA

WEATHER ROUNDUP FOR IOWA
NATIONAL WEATHER SERVICE DES MOINES IA
500 AM CDT MON MAR 30 2015

NOTE: "FAIR" INDICATES FEW OR NO CLOUDS BELOW 12,000 FEET WITH NO
SIGNIFICANT WEATHER AND/OR OBSTRUCTIONS TO VISIBILITY.

* - THESE STATIONS ARE NOT NWS STATIONS...THUS NOT UNDER NWS
QUALITY CONTROL.  THEY ALSO DO NOT REPORT WEATHER SUCH
AS PRECIPITATION OR FOG.

IAZ001>003-012>014-020>022-031>034-043>046-301100-
   NORTHWEST IOWA

CITY           SKY/WX    TMP DP  RH WIND       PRES   REMARKS
CARROLL *      CLEAR     37  23  56 CALM      30.08S
CHEROKEE *     MOCLDY    28  27  93 S3        30.06R
DENISON *      CLEAR     30  27  86 W3        30.08R
LE MARS *      CLEAR     32  23  69 S3        30.05F
ORANGE CITY *  CLEAR     36  23  60 S3        30.04S
SHELDON *      CLEAR     34  25  69 S6        30.03S WCI  29
SIOUX CITY     PTCLDY    32  23  69 E7        30.06F WCI  26
SPENCER        PTCLDY    33  24  69 SW5       30.04S WCI  29
STORM LAKE *   CLEAR     36  25  64 SW9       30.06S WCI  29
$$

IAZ055>058-069>071-079>083-090>094-301100-
   SOUTHWEST IOWA

CITY           SKY/WX    TMP DP  RH WIND       PRES   REMARKS
ATLANTIC *     CLEAR     27  23  86 CALM      30.12R
AUDUBON *      CLEAR     27  21  80 CALM      30.10R
CLARINDA *     CLEAR     28  25  86 SW3       30.14F
COUNCIL BLFS * CLEAR     41  25  52 SW9       30.11S
CRESTON *      CLEAR     36  25  64 S6        30.11F WCI  31
HARLAN  *      CLEAR     28  28 100 CALM      30.14R
LAMONI         PTCLDY    40  25  55 SW6       30.13S
RED OAK *      CLEAR     34  27  75 CALM      30.13R
SHENANDOAH *   CLEAR     30  28  93 CALM      30.14R
$$

IAZ047>049-059>061-072>074-084-301100-
   CENTRAL IOWA

CITY           SKY/WX    TMP DP  RH WIND       PRES   REMARKS
AMES           CLEAR     32  23  69 W10       30.08R WCI  24
ANKENY *       CLEAR     34  25  69 CALM      30.10R
CHARITON *     PTCLDY    37  25  60 SW8       30.12R WCI  31
DES MOINES     PTCLDY    38  24  57 SW6       30.11R WCI  33
GRINNELL*      CLEAR     32  25  74 SW9       30.09R WCI  24
KNOXVILLE *    CLEAR     36  23  60 SW7       30.09R WCI  30
MARSHALLTOWN   CLEAR     31  24  75 W7        30.06R WCI  24
PELLA *        CLEAR     37  28  70 W6        30.11R WCI  33
PERRY *          N/A     32  27  80 SW9       30.08F WCI  24
$$

IAZ004>006-015-016-023>025-035-036-301100-
   NORTH CENTRAL IOWA

CITY           SKY/WX    TMP DP  RH WIND       PRES   REMARKS
ALGONA *       CLEAR     36  25  64 SW9       30.04S WCI  29
CLARION *      CLEAR     30  27  86 S7        30.05S WCI  23
ESTHERVILLE    PTCLDY    35  24  64 SW14      30.01S WCI  26
FORT DODGE *     N/A     30  21  69 CALM      30.07S
MASON CITY     CLEAR     36  27  69 W13       30.03F WCI  27
FOREST CITY *  CLEAR     32  27  80 SW6       30.01F WCI  26
IOWA FALLS *     N/A     34  27  75 SW10      30.06S WCI  26
$$

IAZ007>011-017>019-026>030-037>042-050>054-066-301100-
   NORTHEAST IOWA

CITY           SKY/WX    TMP DP  RH WIND       PRES   REMARKS
CEDAR RAPIDS   CLEAR     32  25  75 W9        30.04R WCI  24
CHARLES CITY * CLEAR     34  27  75 W7        30.01F WCI  28
CLINTON *      CLEAR     30  25  80 W5        30.06R WCI  25
DECORAH *      CLEAR     36  28  75 SW5       29.99S WCI  32
DUBUQUE        CLEAR     35  28  75 W9        30.01S WCI  28
MONTICELLO *   CLEAR     32  28  86 CALM      30.03S
OELWEIN *      CLEAR     34  27  75 W7        30.03R WCI  28
WATERLOO       CLEAR     29  25  85 CALM      30.03S
$$

IAZ064-065-067-068-078-301100-
   EAST CENTRAL IOWA

CITY           SKY/WX    TMP DP  RH WIND       PRES   REMARKS
DAVENPORT      CLEAR     31  26  82 W6        30.05R WCI  25
IOWA CITY      CLEAR     34  26  72 W3        30.08R
MT. PLEASANT * CLEAR     32  25  74 SW7       30.10R WCI  26
MUSCATINE *    CLEAR     37  28  70 SW8       30.07R WCI  31
QUAD CITIES    CLEAR     35  27  72 SW3       30.05R
$$

IAZ062-063-075>077-085>089-095>099-301100-
   SOUTHEAST IOWA

CITY           SKY/WX    TMP DP  RH WIND       PRES   REMARKS
BURLINGTON     CLEAR     38  27  64 W3        30.08S
FAIRFIELD *    CLEAR     36  25  64 SW8       30.10R WCI  29
FORT MADISON * CLEAR     37  27  65 SW7       30.10S WCI  32
KEOKUK *       CLEAR     36  27  69 SW8       30.10S WCI  29
OSKALOOSA *      N/A     32  25  74 W9        30.10R WCI  24
CENTERVILLE *  CLEAR     32  27  80 SW8       30.14R WCI  25
OTTUMWA        CLEAR     34  24  67 SW9       30.10R WCI  27
WASHINGTON *   CLEAR     36  28  75 W8        30.08R WCI  29
$$

ABBREVIATIONS USED IN REMARKS
   TC - TEMPERATURES IN CELSIUS
  WCI - WIND CHILL INDEX
   HX - HEAT INDEX
  VSB - VISIBILITY
$$




USA.gov is the U.S. government's official web portal to all federal, state and local government web resources and services.